Weather Roundup
Issued by NWS Springfield, MO

Home | Current Version | Previous Version | Text Only | Print | Product List | Glossary On
Versions: 1 2 3 4 5 6 7 8 9 10 11 12 13 14 15 16 17 18 19 20 21 22 23 24 25 26 27 28 29 30 31 32 33 34 35 36 37 38 39 40 41 42 43 44 45 46 47 48 49 50
000
NZUS99 KSGF 290057
HRRSGF

HOURLY WEATHER
NATIONAL WEATHER SERVICE SPRINGFIELD MO
800 PM CDT THU APR 28 2016

......SGF CWA......

CITY           SKY/WX    TMP DP  RH WIND       PRES   REMARKS
SPRINGFIELD    CLEAR     64  46  52 N6        29.97S
JOPLIN         CLEAR     63  51  65 NE6       29.96F
WEST PLAINS    CLEAR     70  41  34 N3        29.98R
ROLLA          PTCLDY    63  47  55 W6        29.97R
BRANSON        PTCLDY    70  45  40 N3        29.97S

......SURROUNDING SGF CWA......

CITY           SKY/WX    TMP DP  RH WIND       PRES   REMARKS
CHANUTE        CLOUDY    62  49  62 NE7       29.96F
PARSONS        PTCLDY    64  52  64 CALM      29.96F
COFFEYVILLE    CLEAR     64  51  62 E6        29.94F
EMPORIA        PTCLDY    59  48  67 NE6       29.97S
HARRISON AR    CLEAR     69  45  41 NE3       29.97R

......KANSAS AND MISSOURI......

CITY           SKY/WX    TMP DP  RH WIND       PRES   REMARKS
KANSAS CTY INT CLOUDY    54  46  74 N3        30.02R
SEDALIA        CLEAR     58  51  78 N9        30.02R
ST JOSEPH      CLOUDY    53  46  77 N6        30.02R
ST LOUIS       PTCLDY    65  50  58 NW7       29.97R
WICHITA        MOCLDY    64  46  52 NE9       29.96R
TOPEKA         CLEAR     55  45  68 N8        30.00S
OLATHE         CLEAR     56  45  66 N9        30.00S

......TENNESSEE......

CITY           SKY/WX    TMP DP  RH WIND       PRES   REMARKS
MEMPHIS        NOT AVBL
NASHVILLE      CLEAR     76  50  40 W6        29.95R

......ARKANSAS.......

CITY           SKY/WX    TMP DP  RH WIND       PRES   REMARKS
FAYETTEVILLE   CLEAR     62  53  72 CALM      29.94S
FT SMITH       CLEAR     73  50  44 E6        29.88F
LITTLE ROCK    PTCLDY    74  53  48 E7        29.93R

......OKLAHOMA.......

CITY           SKY/WX    TMP DP  RH WIND       PRES   REMARKS
TULSA          PTCLDY    68  52  56 NE9       29.88F
PONCA CITY     PTCLDY    66  48  52 NE6       29.92R
MCALESTER      PTCLDY    73  54  51 E5        29.86S
OKLAHOMA CITY  CLOUDY    70  51  51 E14       29.86R

......IOWA............

CITY           SKY/WX    TMP DP  RH WIND       PRES   REMARKS
DES MOINES     NOT AVBL
QUAD CITIES    CLOUDY    54  49  83 E5        29.95R HAZE

......ILLINOIS........

CITY           SKY/WX    TMP DP  RH WIND       PRES   REMARKS
QUINCY         NOT AVBL
CHICAGO        CLOUDY    43  40  89 N9        29.97R



USA.gov is the U.S. government's official web portal to all federal, state and local government web resources and services.